timestamp,surface_pressure_avg,surface_temp_avg,battery_voltage,lat,long
2019-03-23 00:00:00+00:00,367.0945,0.28,12.97,47.84626,-54.09684
2019-03-23 00:10:00+00:00,365.4346,0.3,12.89,47.84626,-54.09684
2019-03-23 00:20:00+00:00,369.7429,0.3,12.97,47.84626,-54.09684
2019-03-23 00:30:00+00:00,378.5596,0.29,12.97,47.84626,-54.09684
2019-03-23 00:40:00+00:00,382.0813,0.2,12.97,47.84626,-54.09684
2019-03-23 00:50:00+00:00,387.4612,0.2,12.97,47.84626,-54.09684
2019-03-23 01:00:00+00:00,397.9863,0.19,12.89,47.84626,-54.09684
2019-03-23 01:10:00+00:00,401.7146,0.2,12.81,47.84626,-54.09684
2019-03-23 01:20:00+00:00,394.8979,0.2,12.89,47.84626,-54.09684
2019-03-23 01:30:00+00:00,384.2879,0.25,12.89,47.84626,-54.09684
2019-03-23 01:40:00+00:00,380.4129,0.29,12.97,47.84626,-54.09684
2019-03-23 01:50:00+00:00,381.2046,0.3,12.97,47.84626,-54.09684
2019-03-23 02:00:00+00:00,384.4063,0.3,12.89,47.84626,-54.09684
2019-03-23 02:10:00+00:00,381.2612,0.36,12.81,47.84626,-54.09684
2019-03-23 02:20:00+00:00,380.793,0.3,12.89,47.84626,-54.09684
2019-03-23 02:30:00+00:00,380.3929,0.28,12.89,47.84626,-54.09684
2019-03-23 02:40:00+00:00,380.0013,0.25,12.89,47.84626,-54.09684
2019-03-23 02:50:00+00:00,373.188,0.32,12.97,47.84626,-54.09684
2019-03-23 03:00:00+00:00,354.4096,0.36,12.81,47.84626,-54.09684
2019-03-23 03:10:00+00:00,345.073,0.34,12.81,47.84626,-54.09684
2019-03-23 03:20:00+00:00,342.8596,0.4,12.89,47.84626,-54.09684
2019-03-23 03:30:00+00:00,340.743,0.4,12.89,47.84626,-54.09684
2019-03-23 03:40:00+00:00,325.0062,0.4,12.89,47.84626,-54.09684
2019-03-23 03:50:00+00:00,305.813,0.4,12.89,47.84626,-54.09684
2019-03-23 04:00:00+00:00,306.5913,0.4,12.81,47.84626,-54.09684
2019-03-23 04:10:00+00:00,305.0597,0.42,12.73,47.84626,-54.09684
2019-03-23 04:20:00+00:00,292.0247,0.48,12.81,47.84626,-54.09684
2019-03-23 04:30:00+00:00,288.5597,0.49,12.81,47.84626,-54.09684
2019-03-23 04:40:00+00:00,277.5498,0.48,12.89,47.84626,-54.09684
2019-03-23 04:50:00+00:00,255.7864,0.48,12.89,47.84626,-54.09684
2019-03-23 05:00:00+00:00,235.468,0.45,12.81,47.84626,-54.09684
2019-03-23 05:10:00+00:00,227.3248,0.41,12.73,47.84626,-54.09684
2019-03-23 05:20:00+00:00,219.2498,0.42,12.81,47.84626,-54.09684
2019-03-23 05:30:00+00:00,212.3665,0.4,12.81,47.84626,-54.09684
2019-03-23 05:40:00+00:00,203.7131,0.4,12.89,47.84626,-54.09684
2019-03-23 05:50:00+00:00,190.9781,0.4,12.89,47.84626,-54.09684
2019-03-23 06:00:00+00:00,197.4098,0.4,12.81,47.84626,-54.09684
2019-03-23 06:10:00+00:00,197.5497,0.46,12.73,47.84626,-54.09684
2019-03-23 06:20:00+00:00,187.8515,0.4,12.81,47.84626,-54.09684
2019-03-23 06:30:00+00:00,191.4965,0.39,12.81,47.84626,-54.09684
2019-03-23 06:40:00+00:00,192.9365,0.37,12.81,47.84626,-54.09684
2019-03-23 06:50:00+00:00,180.5798,0.38,12.81,47.84626,-54.09684
2019-03-23 07:00:00+00:00,182.8681,0.4,12.81,47.84626,-54.09684
2019-03-23 07:10:00+00:00,191.5114,0.37,12.73,47.84626,-54.09684
2019-03-23 07:20:00+00:00,187.7915,0.37,12.81,47.84626,-54.09684
2019-03-23 07:30:00+00:00,189.6347,0.32,12.81,47.84626,-54.09684
2019-03-23 07:40:00+00:00,194.0214,0.3,12.81,47.84626,-54.09684
2019-03-23 07:50:00+00:00,192.4431,0.33,12.81,47.84626,-54.09684
2019-03-23 08:00:00+00:00,198.7715,0.4,12.73,47.84626,-54.09684
2019-03-23 08:10:00+00:00,206.7998,0.4,12.73,47.84626,-54.09684
2019-03-23 08:20:00+00:00,201.6664,0.4,12.81,47.84626,-54.09684
2019-03-23 08:30:00+00:00,203.1331,0.42,12.81,47.84626,-54.09684
2019-03-23 08:40:00+00:00,210.8714,0.48,12.81,47.84626,-54.09684
2019-03-23 08:50:00+00:00,215.9898,0.5,12.81,47.84626,-54.09684
2019-03-23 09:00:00+00:00,221.5414,0.5,12.73,47.84626,-54.09684
2019-03-23 09:10:00+00:00,230.6381,0.5,12.65,47.84626,-54.09684
2019-03-23 09:20:00+00:00,233.5331,0.5,12.81,47.84626,-54.09684
2019-03-23 09:30:00+00:00,234.4531,0.5,12.81,47.84626,-54.09684
2019-03-23 09:40:00+00:00,246.8997,0.5,12.81,47.84626,-54.09684
2019-03-23 09:50:00+00:00,257.7114,0.5,12.81,47.84626,-54.09684
2019-03-23 10:00:00+00:00,253.5081,0.5,12.73,47.84626,-54.09684
2019-03-23 10:10:00+00:00,245.7664,0.46,12.65,47.84626,-54.09684
2019-03-23 10:20:00+00:00,263.0565,0.49,12.73,47.84626,-54.09684
2019-03-23 10:30:00+00:00,286.4847,0.4,12.81,47.84626,-54.09684
2019-03-23 10:40:00+00:00,283.9214,0.4,12.81,47.84626,-54.09684
2019-03-23 10:50:00+00:00,280.678,0.25,12.81,47.84626,-54.09684
2019-03-23 11:00:00+00:00,299.0613,0.3,12.73,47.84626,-54.09684
2019-03-23 11:10:00+00:00,308.9513,0.3,12.65,47.84626,-54.09684
2019-03-23 11:20:00+00:00,302.8147,0.3,12.81,47.84626,-54.09684
2019-03-23 11:30:00+00:00,312.8514,0.27,12.81,47.84626,-54.09684
2019-03-23 11:40:00+00:00,332.8329,0.3,12.81,47.84626,-54.09684
2019-03-23 11:50:00+00:00,336.5264,0.2,12.81,47.84626,-54.09684
2019-03-23 12:00:00+00:00,336.9813,0.2,12.81,47.84626,-54.09684
2019-03-23 12:10:00+00:00,357.113,0.2,12.73,47.84626,-54.09684
2019-03-23 12:20:00+00:00,374.1663,0.18,12.81,47.84626,-54.09684
2019-03-23 12:30:00+00:00,357.3579,0.19,12.89,47.84626,-54.09684
2019-03-23 12:40:00+00:00,360.3129,0.18,12.89,47.84626,-54.09684
2019-03-23 12:50:00+00:00,379.943,0.13,12.97,47.84626,-54.09684
2019-03-23 13:00:00+00:00,379.918,0.15,12.89,47.84626,-54.09684
2019-03-23 13:10:00+00:00,372.9246,0.19,12.89,47.84626,-54.09684
2019-03-23 13:20:00+00:00,382.9012,0.11,13.05,47.84626,-54.09684
2019-03-23 13:30:00+00:00,389.3279,0.18,13.13,47.84626,-54.09684
2019-03-23 13:40:00+00:00,384.8445,0.2,13.21,47.84626,-54.09684
2019-03-23 13:50:00+00:00,382.483,0.2,13.29,47.84626,-54.09684
2019-03-23 14:00:00+00:00,383.9279,0.23,13.37,47.84626,-54.09684
2019-03-23 14:10:00+00:00,380.743,0.26,13.29,47.84626,-54.09684
2019-03-23 14:20:00+00:00,371.7996,0.27,13.44,47.84626,-54.09684
2019-03-23 14:30:00+00:00,369.3347,0.27,13.44,47.84626,-54.09684
2019-03-23 14:40:00+00:00,366.4146,0.2,13.53,47.84626,-54.09684
2019-03-23 14:50:00+00:00,362.5013,0.19,13.6,47.84626,-54.09684
2019-03-23 15:00:00+00:00,356.0863,0.2,13.53,47.84626,-54.09684
2019-03-23 15:10:00+00:00,339.0714,0.21,13.44,47.84626,-54.09684
2019-03-23 15:20:00+00:00,335.6114,0.23,13.68,47.84626,-54.09684
2019-03-23 15:30:00+00:00,337.4896,0.33,13.68,47.84626,-54.09684
2019-03-23 15:40:00+00:00,321.6213,0.3,13.76,47.84626,-54.09684
2019-03-23 15:50:00+00:00,313.0597,0.3,13.92,47.84626,-54.09684
2019-03-23 16:00:00+00:00,320.9597,0.4,13.84,47.84626,-54.09684
2019-03-23 16:10:00+00:00,313.8814,0.38,13.84,47.84626,-54.09684
2019-03-23 16:20:00+00:00,291.4946,0.33,14.0,47.84626,-54.09684
2019-03-23 16:30:00+00:00,274.6913,0.44,14.16,47.84626,-54.09684
2019-03-23 16:40:00+00:00,273.9047,0.5,14.24,47.84626,-54.09684
2019-03-23 16:50:00+00:00,265.2414,0.43,14.16,47.84626,-54.09684
2019-03-23 17:00:00+00:00,248.3014,0.5,14.08,47.84626,-54.09684
2019-03-23 17:10:00+00:00,241.4698,0.5,13.92,47.84626,-54.09684
2019-03-23 17:20:00+00:00,231.7164,0.49,13.92,47.84626,-54.09684
2019-03-23 17:30:00+00:00,213.2681,0.49,13.92,47.84626,-54.09684
2019-03-23 17:40:00+00:00,194.5598,0.5,13.92,47.84626,-54.09684
2019-03-23 17:50:00+00:00,194.6132,0.6,13.84,47.84626,-54.09684
2019-03-23 18:00:00+00:00,193.2398,0.6,13.76,47.84626,-54.09684
2019-03-23 18:10:00+00:00,177.4631,0.6,13.68,47.84626,-54.09684
2019-03-23 18:20:00+00:00,163.5998,0.6,13.68,47.84626,-54.09684
2019-03-23 18:30:00+00:00,168.9182,0.53,13.76,47.84626,-54.09684
2019-03-23 18:40:00+00:00,167.4798,0.6,13.92,47.84626,-54.09684
2019-03-23 18:50:00+00:00,153.0315,0.7,13.92,47.84626,-54.09684
2019-03-23 19:00:00+00:00,159.3148,0.6,13.92,47.84626,-54.09684
2019-03-23 19:10:00+00:00,174.4598,0.56,13.84,47.84626,-54.09684
2019-03-23 19:20:00+00:00,170.4298,0.69,13.92,47.84626,-54.09684
2019-03-23 19:30:00+00:00,168.7731,0.7,13.92,47.84626,-54.09684
2019-03-23 19:40:00+00:00,190.5681,0.5,13.92,47.84626,-54.09684
2019-03-23 19:50:00+00:00,205.2898,0.4,13.92,47.84626,-54.09684
2019-03-23 20:00:00+00:00,198.4597,0.4,13.84,47.84626,-54.09684
2019-03-23 20:10:00+00:00,191.5181,0.4,13.68,47.84626,-54.09684
2019-03-23 20:20:00+00:00,211.2731,0.39,13.68,47.84626,-54.09684
2019-03-23 20:30:00+00:00,224.4198,0.34,13.6,47.84626,-54.09684
2019-03-23 20:40:00+00:00,218.0781,0.39,13.53,47.84626,-54.09684
2019-03-23 20:50:00+00:00,216.9731,0.31,13.53,47.84626,-54.09684
2019-03-23 21:00:00+00:00,232.1381,0.4,13.37,47.84626,-54.09684
2019-03-23 21:10:00+00:00,233.9681,0.3,13.21,47.84626,-54.09684
2019-03-23 21:20:00+00:00,240.5531,0.38,13.21,47.84626,-54.09684
2019-03-23 21:30:00+00:00,253.8248,0.48,13.21,47.84626,-54.09684
2019-03-23 21:40:00+00:00,251.0531,0.4,13.21,47.84626,-54.09684
2019-03-23 21:50:00+00:00,243.9598,0.29,13.13,47.84626,-54.09684
2019-03-23 22:00:00+00:00,256.5681,0.3,13.05,47.84626,-54.09684
2019-03-23 22:10:00+00:00,261.7697,0.22,12.97,47.84626,-54.09684
2019-03-23 22:20:00+00:00,272.9198,0.2,12.97,47.84626,-54.09684
2019-03-23 22:30:00+00:00,284.8713,0.1,12.97,47.84626,-54.09684
2019-03-23 22:40:00+00:00,289.2747,0.1,12.97,47.84626,-54.09684
2019-03-23 22:50:00+00:00,288.5514,0.1,12.97,47.84626,-54.09684
2019-03-23 23:00:00+00:00,295.4846,0.1,12.97,47.84626,-54.09684
2019-03-23 23:10:00+00:00,316.1664,0.05,12.81,47.84626,-54.09684
2019-03-23 23:20:00+00:00,325.6964,0.01,12.97,47.84626,-54.09684
2019-03-23 23:30:00+00:00,329.5714,0.0,12.97,47.84626,-54.09684
2019-03-23 23:40:00+00:00,334.0363,0.0,12.97,47.84626,-54.09684
2019-03-23 23:50:00+00:00,344.5563,0.0,12.97,47.84626,-54.09684
